"Pseudo-MPEC" for ZTs0053 = A10Tqgl = A10SMtV
Created 2023 Jul 14 21:58:06 UT using Find_Orb
Click here for an explanation of pseudo-MPECs
Astrometry:
A10SMtV C2023 02 15.30983811 23 31.634-02 33 57.60 .50 x15.54oV W68
A10SMtV C2023 02 15.31389811 24 16.759-02 44 58.42 .50 x15.55oV W68
A10SMtV C2023 02 15.32111911 25 37.092-03 04 25.10 .50 x15.54oV W68
A10Tqgl C2023 03 12.31431112 30 56.090-13 46 59.74 .50 x15.93oV W68
A10Tqgl C2023 03 12.31791712 31 28.687-13 53 03.30 .50 x16.06oV W68
A10Tqgl C2023 03 12.32479112 32 31.570-14 04 31.44 .50 x15.97oV W68
A10Tqgl C2023 03 12.33821312 34 36.917-14 26 31.06 .50 x15.99oV W68
ZTs0053* C2023 03 13.31810 12 01 09.18 -13 20 41.9 ~3E0sx16.12gUNEOCPI41
ZTs0053 C2023 03 13.31844 12 01 12.39 -13 21 23.5 ~3E0sx16.12gUNEOCPI41
ZTs0053 C2023 03 13.31903 12 01 17.70 -13 22 32.2 ~3E0sx16.21gUNEOCPI41
ZTs0053 C2023 03 13.31938 12 01 20.88 -13 23 13.5 ~3E0sx16.21gUNEOCPI41
ZTs0053 C2023 03 13.37773412 09 59.406-15 13 36.35 ~3FFgx15.85RUNEOCPI41
ZTs0053 C2023 03 13.37808112 10 02.594-15 14 16.35 ~3FFgx15.85RUNEOCPI41
C3MCGW1* C2023 03 26.29916112 14 02.140-16 05 23.80 .50 x15.78GVNEOCP703
C3MCGW1 C2023 03 26.30439312 14 48.840-16 14 09.10 .50 x15.81GVNEOCP703
C3MCGW1 C2023 03 26.30962812 15 35.170-16 22 47.80 .50 x VNEOCP703
C3MCGW1 C2023 03 26.31486512 16 21.370-16 31 20.20 .50 x VNEOCP703
C3MCGW1 KC2023 03 26.34431212 20 38.008-17 17 13.31 .50 x15.79GV! I52
C3MCGW1 KC2023 03 26.34478312 20 42.058-17 17 55.32 .50 x15.96GV! I52
C3MCGW1 KC2023 03 26.34525412 20 46.129-17 18 37.58 .50 x15.97GV! I52
C3MCGW1 KC2023 03 26.34572512 20 50.179-17 19 19.63 .50 x15.97GV! I52
C3MCGW1 KC2023 03 26.38978812 27 11.776-18 21 25.02 .50 x15.93GV! I52
C3MCGW1 KC2023 03 26.39023912 27 15.700-18 22 00.73 .50 x15.98GV! I52
C3MCGW1 KC2023 03 26.39069312 27 19.692-18 22 37.06 .50 x15.98GV! I52
C3MCGW1 KC2023 03 26.39114312 27 23.656-18 23 12.73 .50 x15.91GV! I52
A10UfCp C2023 03 29.89569312 35 15.612-13 21 20.99 .50 x15.24oV! M22
A10UfCp C2023 03 29.89754112 35 31.519-13 24 38.27 .50 x15.03oV! M22
A10UfCp C2023 03 29.91548112 38 02.129-13 55 31.91 .50 x15.33oV! M22
A10UfCp C2023 03 29.91887512 38 30.228-14 01 13.87 .50 x15.33oV! M22
A10Umiw C2023 03 31.09979812 46 52.133-14 12 47.23 .50 x15.35oV! W68
A10Umiw C2023 03 31.10172612 47 09.710-14 16 11.46 .50 x15.17oV! W68
A10Umiw C2023 03 31.10451212 47 34.997-14 21 04.82 .50 x15.31oV! W68
A10Umiw C2023 03 31.10960912 48 20.820-14 29 58.02 .50 x15.36oV! W68
A10UAvJ C2023 04 11.04700513 58 42.036-22 11 38.80 .50 x15.76oV! M22
A10UAvJ C2023 04 11.05046313 59 20.842-22 14 18.96 .50 x15.70oV! M22
A10UAvJ C2023 04 11.05577214 00 21.046-22 18 18.83 .50 x15.61oV! M22
A10UAvJ C2023 04 11.06870614 02 52.913-22 27 40.93 .50 x15.73oV! M22
A10UAvJ C2023 04 11.07354614 03 51.305-22 31 01.13 .50 x16.07oV! M22
A10V5sy C2023 04 24.19302315 25 38.033-24 42 03.96 ~4RIcx15.60cV! W68
A10V5sy C2023 04 24.19641115 26 49.214-24 44 10.36 ~4RIcx15.67cV! W68
A10V5sy C2023 04 24.20695615 30 37.954-24 50 16.51 ~4RIcx15.53cV! W68
A10V5sy C2023 04 24.20969015 31 39.245-24 51 44.78 ~4RIcx15.48cV! W68
A10V5sy C2023 04 24.21195315 32 30.422-24 52 55.20 ~4RIcx15.63cV! W68
A10V5sy C2023 04 24.21285515 32 51.077-24 53 23.06 ~4RIcx15.45cV! W68
A10Vdfv C2023 04 30.86742713 37 20.232-20 24 52.49 ~52CNx15.30oV! M22
A10Vdfv C2023 04 30.87020013 37 45.386-20 27 38.88 ~52CNx15.46oV! M22
A10Vdfv C2023 04 30.87296713 38 10.490-20 30 23.33 ~52CNx15.30oV! M22
A10Vowp C2023 05 09.20990713 58 28.550-22 15 59.36 ~5AGnx15.79oV! W68
A10Vowp C2023 05 09.21270813 58 55.831-22 17 14.10 ~5AGnx15.73oV! W68
A10Vowp C2023 05 09.21594613 59 27.530-22 18 37.91 ~5AGnx15.79oV! W68
A10Vowp C2023 05 09.22157814 00 22.968-22 20 57.95 ~5AGnx15.87oV! W68
A10Vowp C2023 05 09.22476514 00 54.646-22 22 13.62 ~5AGnx15.80oV! W68
A10Vowp C2023 05 09.23535414 02 40.510-22 26 05.82 ~5AGnx15.88oV! W68
A10VriK C2023 05 10.15062112 56 41.458-18 41 16.37 ~5DGtx15.92oV! W68
A10VriK C2023 05 10.15711812 58 09.254-18 49 23.30 ~5DGtx15.80oV! W68
A10VriK C2023 05 10.16033812 58 52.279-18 53 16.33 ~5DGtx15.79oV! W68
A10VriK C2023 05 10.16618413 00 10.001-19 00 07.24 ~5DGtx15.90oV! W68
A10VriK C2023 05 10.18023113 03 14.177-19 15 28.87 ~5DGtx15.92oV! W68
A10VAC0 C2023 05 19.90304114 36 26.746-23 19 38.39 ~5M30 15.68cV! M22
A10VAC0 C2023 05 19.90820514 37 21.151-23 21 11.81 ~5M30 15.68cV! M22
A10VAC0 C2023 05 19.91239914 38 05.446-23 22 22.30 ~5M30 15.63cV! M22
A10VAC0 C2023 05 19.92252514 39 53.172-23 24 52.38 ~5M30 16.05cV! M22
A10VCAG C2023 05 21.16376015 00 40.392-23 51 54.72 ~5NID 15.26oV! W68
A10VCAG C2023 05 21.16691415 01 16.128-23 52 24.13 ~5NID 15.27oV! W68
A10VCAG C2023 05 21.17381015 02 34.637-23 53 18.28 ~5NID 15.21oV! W68
A10VCAG C2023 05 21.18441515 04 36.804-23 54 13.82 ~5NID 15.22oV! W68
A10VLp2 C2023 06 24.88220716 19 11.395-22 41 40.16 .50 15.44oV M22
A10VLp2 C2023 06 24.88497116 19 55.973-22 39 43.16 .50 15.48oV M22
A10VLp2 C2023 06 24.89003016 21 17.818-22 36 00.94 .50 15.36oV M22
A10VTTD* C2023 07 12/`LTn,k`OhYTET=MVx0Q5;tN[fRuGAstrometry;5so]Y;Cc]xB7M22
A10VTTD C2023 07 12CP.K,redacted;-57v*2JexfqMg2=`\twx]Zv%Ks/3Dot3-p=?u]M22
A10VTTD C2023 07 12qaTy)ApiWpc.clickHBxYmrhp8U^EK!F8ibmhkh^4E/RS1Ru0fh\M22
A10VTTD C2023 07 12TH,lWjk)Fc)^SE+uherejs4%w1K.=Fr)h.8ko*H_P+_95xlZ)BKWM22
A10VTTD C2023 07 12V*OforSo!;2G4jvT[k8)+Bexplanation5j\$B(8LJ=]!23pgO)iM22
A10VWqZ* C2023 07 14cyY_-n+yQ6B@$DI`7O1TfkVR%L@T/cqbv0oj;ouQ72o:5UQ@`*fpW68
A10VWqZ C2023 07 14\kBVy,?Jno49*355$+GME\\Q#k^iaA4]QgiK78@%VZ/ioEGFty]VW68
A10VWqZ C2023 07 14*73uvV\qD@HecsV!n\WNkwj!Q7uPt,51s0a*GX(A[n*.J`,qPRL'W68
A10VWqZ C2023 07 14vMXg#/;/D'\.h@UGIv\q[jAAm(8w4d%dl]RoFmXDt:Sc5bd89F/tW68
Station data:
(703) Catalina Sky Survey (N32.417003 W110.732640) US/Arizona. Observer R.
A. Kowalski. Measurers E. J. Christensen, D. Fay, J. B. Fazekas, D. C.
Fuls, A. R. Gibbs, A. D. Grauer, H. Gröller, J. K. Hogan, R. A. Kowalski,
S. M. Larson, G. J. Leonard, D. Rankin, R. L. Seaman, A. Serrano, F. C.
Shelly, K. W. Wierzchoś. 0.68-m Schmidt + 10K CCD.
(I41) Palomar Mountain--ZTF (N33.357338 W116.859780) US/California.
Observers B. T. Bolin, Z. T. F. Collaboration. Measurers B. T. Bolin,
Z.-Y. Lin, F. J. Masci. 1.2-m f/2.4 Schmidt.
(I52) Steward Observatory, Mt. Lemmon Station (N32.442544 W110.788920)
US/Arizona. Observers T. A. Pruyne, B. M. Africano, E. J. Christensen, G.
A. Farneth, D. C. Fuls, A. R. Gibbs, A. D. Grauer, H. Gröller, J. A.
Johnson, R. A. Kowalski, S. M. Larson, G. J. Leonard, D. Rankin, R. L.
Seaman, F. C. Shelly, K. W. Wierzchoś. 1.0-m prime focus + CCD.
(M22) ATLAS South Africa, Sutherland (S32.380156 E20.810590) South Africa.
Observers L. Denneau, R. Siverd, J. Tonry, H. Weiland. Measurers L.
Denneau, N. Erasmus, A. Fitzsimmons, A. Lawrence, J. Robinson, R. Siverd,
J. Tonry, H. Weiland. 0.5-m reflector + CCD.
(W68) ATLAS Chile, Rio Hurtado (S30.471010 W70.764980) Chile. Observers L.
Denneau, R. Siverd, J. Tonry, H. Weiland. Measurers L. Denneau, N.
Erasmus, A. Fitzsimmons, A. Lawrence, J. Robinson, R. Siverd, J. Tonry, H.
Weiland. 0.5-m reflector + CCD.
Orbital elements: ZTs0053 = A10Tqgl = A10SMtV
Perigee 2023 Jul 13.5422639 +/- 0.00464 TT = 13:00:51.59 (JD 2460139.0422639)
Epoch 2023 Jul 14.0 TT; AMR 45.071 +/- 0.656 m2/kg Find_Orb
M 136.2440577219 +/- 1.3 (J2000 equator)
n 297.6475957005 +/- 0.0144 Peri. 102.3615270 +/- 0.38
a 47951.469433 +/- 1.55 Node 321.2120161 +/- 0.07
e 0.603003431 +/- 0.00279 Incl. 24.1380978 +/- 0.009
P1741.62m/1.209d H 31.39 G 0.15 U 9.9
q 19036.568831 +/- 133 Q 76866.370035 +/- 136
20 of 78 observations 2023 May 19-July 14; mean residual 58".098
